NKS785 MDPC-KFLL

Flight info

Callsign NKS785
Flight time 2h 15m
Altitude 34000
Route MALVN2W MALVN DCT RUMFO DCT ZQA OLAHS3
Aircraft A321/M-SDE3FGHIRWY/LB1

Departure

Time 2026-05-03 23:36
Airport Punta Cana International Airport (MDPC)

Arrival

Time 2026-05-04 01:51
Airport Fort Lauderdale Hollywood International Airport (KFLL)
Time Latitude Longitude Altitude Speed Heading
2026-05-03 22:38 18.56390 -68.36283 51 ft 0 kts 175°
2026-05-03 23:22 18.56404 -68.36284 50 ft 4 kts 185°
2026-05-03 23:22 18.56427 -68.36277 50 ft 4 kts 225°
2026-05-03 23:22 18.56434 -68.36270 50 ft 0 kts 246°
2026-05-03 23:23 18.56435 -68.36268 50 ft 4 kts 249°
2026-05-03 23:23 18.56439 -68.36241 50 ft 4 kts 268°
2026-05-03 23:23 18.56439 -68.36237 50 ft 4 kts 264°
2026-05-03 23:23 18.56438 -68.36247 50 ft 0 kts 265°
2026-05-03 23:24 18.56471 -68.36303 52 ft 69 kts 265°
2026-05-03 23:27 18.56471 -68.36309 50 ft 1 kts 265°
2026-05-03 23:27 18.56470 -68.36321 50 ft 2 kts 265°
2026-05-03 23:27 18.56468 -68.36346 50 ft 7 kts 270°
2026-05-03 23:28 18.56512 -68.36397 50 ft 11 kts 333°
2026-05-03 23:28 18.56548 -68.36461 50 ft 13 kts 272°
2026-05-03 23:28 18.56539 -68.36581 51 ft 18 kts 262°
2026-05-03 23:28 18.56527 -68.36715 49 ft 19 kts 265°
2026-05-03 23:29 18.56517 -68.36853 50 ft 19 kts 264°
2026-05-03 23:29 18.56503 -68.36993 50 ft 19 kts 264°
2026-05-03 23:29 18.56492 -68.37135 50 ft 20 kts 266°
2026-05-03 23:29 18.56479 -68.37280 50 ft 20 kts 264°
2026-05-03 23:30 18.56467 -68.37415 50 ft 18 kts 264°
2026-05-03 23:30 18.56455 -68.37549 50 ft 19 kts 265°
2026-05-03 23:30 18.56443 -68.37686 50 ft 19 kts 265°
2026-05-03 23:30 18.56485 -68.37777 51 ft 14 kts 336°
2026-05-03 23:31 18.56583 -68.37791 51 ft 14 kts 355°
2026-05-03 23:31 18.56679 -68.37816 48 ft 15 kts 320°
2026-05-03 23:31 18.56728 -68.37914 49 ft 16 kts 294°
2026-05-03 23:31 18.56773 -68.38021 50 ft 16 kts 294°
2026-05-03 23:32 18.56821 -68.38133 49 ft 17 kts 294°
2026-05-03 23:32 18.56875 -68.38235 50 ft 14 kts 320°
2026-05-03 23:32 18.56928 -68.38262 51 ft 0 kts 342°
2026-05-03 23:34 18.56935 -68.38264 51 ft 4 kts 342°
2026-05-03 23:34 18.56986 -68.38281 52 ft 10 kts 344°
2026-05-03 23:34 18.57034 -68.38266 52 ft 8 kts 50°
2026-05-03 23:34 18.57048 -68.38231 52 ft 0 kts 73°
2026-05-03 23:35 18.57049 -68.38228 52 ft 3 kts 73°
2026-05-03 23:35 18.57096 -68.38055 50 ft 58 kts 74°
2026-05-03 23:35 18.57275 -68.37409 51 ft 123 kts 73°
2026-05-03 23:35 18.57564 -68.36360 61 ft 172 kts 74°
2026-05-03 23:36 18.57888 -68.35152 753 ft 166 kts 75°
2026-05-03 23:36 18.58204 -68.33960 1366 ft 174 kts 75°
2026-05-03 23:36 18.58556 -68.32680 1595 ft 192 kts 74°
2026-05-03 23:36 18.58858 -68.31223 1721 ft 214 kts 91°
2026-05-03 23:37 18.58313 -68.29720 1859 ft 234 kts 131°
2026-05-03 23:37 18.57049 -68.28555 2168 ft 252 kts 140°
2026-05-03 23:37 18.55642 -68.27412 2818 ft 257 kts 142°
2026-05-03 23:37 18.54191 -68.26319 3600 ft 257 kts 150°
2026-05-03 23:38 18.52447 -68.25900 4250 ft 266 kts 184°
2026-05-03 23:38 18.50702 -68.26598 4837 ft 277 kts 211°
2026-05-03 23:38 18.49188 -68.27868 4992 ft 280 kts 221°
2026-05-03 23:38 18.47903 -68.29414 5009 ft 282 kts 240°
2026-05-03 23:39 18.47282 -68.31378 5046 ft 287 kts 262°
2026-05-03 23:39 18.47230 -68.33461 5667 ft 289 kts 270°
2026-05-03 23:39 18.47200 -68.35608 6391 ft 290 kts 267°
2026-05-03 23:39 18.47119 -68.37745 7055 ft 293 kts 266°
2026-05-03 23:40 18.47019 -68.39899 7685 ft 296 kts 266°
2026-05-03 23:40 18.46918 -68.42048 8291 ft 300 kts 266°
2026-05-03 23:40 18.46819 -68.44280 8889 ft 303 kts 266°
2026-05-03 23:40 18.46727 -68.46504 9458 ft 306 kts 266°
2026-05-03 23:41 18.46640 -68.48722 10036 ft 308 kts 266°
2026-05-03 23:41 18.46555 -68.51020 10317 ft 323 kts 267°
2026-05-03 23:41 18.46608 -68.53450 10450 ft 342 kts 277°
2026-05-03 23:41 18.47143 -68.55957 10615 ft 358 kts 289°
2026-05-03 23:42 18.48165 -68.58372 11035 ft 365 kts 297°
2026-05-03 23:42 18.49303 -68.60776 11584 ft 367 kts 296°
2026-05-03 23:42 18.50432 -68.63197 12174 ft 369 kts 296°
2026-05-03 23:42 18.51558 -68.65636 12737 ft 371 kts 295°
2026-05-03 23:43 18.52688 -68.68086 13297 ft 373 kts 295°
2026-05-03 23:43 18.53825 -68.70550 13861 ft 375 kts 295°
2026-05-03 23:43 18.54971 -68.73024 14432 ft 376 kts 295°
2026-05-03 23:43 18.56123 -68.75503 14977 ft 378 kts 295°
2026-05-03 23:44 18.57284 -68.77999 15511 ft 380 kts 295°
2026-05-03 23:44 18.58450 -68.80509 16049 ft 382 kts 295°
2026-05-03 23:44 18.59622 -68.83027 16565 ft 383 kts 295°
2026-05-03 23:44 18.60796 -68.85553 17063 ft 386 kts 295°
2026-05-03 23:45 18.61977 -68.88106 17555 ft 387 kts 294°
2026-05-03 23:45 18.63162 -68.90669 18061 ft 389 kts 294°
2026-05-03 23:45 18.64351 -68.93236 18543 ft 391 kts 295°
2026-05-03 23:45 18.65554 -68.95824 18998 ft 395 kts 295°
2026-05-03 23:46 18.66763 -68.98431 19421 ft 398 kts 295°
2026-05-03 23:46 18.67983 -69.01066 19836 ft 401 kts 295°
2026-05-03 23:46 18.69213 -69.03723 20253 ft 404 kts 295°
2026-05-03 23:46 18.70451 -69.06397 20672 ft 407 kts 295°
2026-05-03 23:47 18.71700 -69.09095 21065 ft 411 kts 295°
2026-05-03 23:47 18.72955 -69.11804 21457 ft 414 kts 295°
2026-05-03 23:47 18.74221 -69.14541 21845 ft 416 kts 295°
2026-05-03 23:47 18.75495 -69.17296 22187 ft 420 kts 295°
2026-05-03 23:48 18.76776 -69.20071 22527 ft 422 kts 295°
2026-05-03 23:48 18.78064 -69.22871 22861 ft 425 kts 295°
2026-05-03 23:48 18.79353 -69.25679 23189 ft 428 kts 296°
2026-05-03 23:48 18.80656 -69.28515 23496 ft 430 kts 296°
2026-05-03 23:49 18.81967 -69.31363 23815 ft 433 kts 296°
2026-05-03 23:49 18.83288 -69.34232 24117 ft 435 kts 296°
2026-05-03 23:49 18.84619 -69.37116 24415 ft 438 kts 296°
2026-05-03 23:49 18.85953 -69.40012 24719 ft 440 kts 296°
2026-05-03 23:50 18.87292 -69.42924 25027 ft 442 kts 296°
2026-05-03 23:50 18.88180 -69.44857 25232 ft 443 kts 296°
2026-05-03 23:50 18.89983 -69.48789 25649 ft 446 kts 296°
2026-05-03 23:50 18.91338 -69.51743 25947 ft 447 kts 296°
2026-05-03 23:51 18.92683 -69.54673 26243 ft 449 kts 296°
2026-05-03 23:51 18.94048 -69.57646 26539 ft 451 kts 296°
2026-05-03 23:51 18.95420 -69.60637 26824 ft 453 kts 296°
2026-05-03 23:51 18.96794 -69.63635 27104 ft 455 kts 296°
2026-05-03 23:52 18.98175 -69.66646 27397 ft 456 kts 296°
2026-05-03 23:52 18.99560 -69.69667 27673 ft 458 kts 296°
2026-05-03 23:52 19.00949 -69.72706 27942 ft 460 kts 296°
2026-05-03 23:52 19.02340 -69.75751 28206 ft 462 kts 296°
2026-05-03 23:53 19.03740 -69.78812 28457 ft 463 kts 296°
2026-05-03 23:53 19.05144 -69.81884 28706 ft 465 kts 296°
2026-05-03 23:53 19.06553 -69.84974 28968 ft 467 kts 296°
2026-05-03 23:53 19.07964 -69.88071 29185 ft 469 kts 296°
2026-05-03 23:54 19.09382 -69.91187 29431 ft 470 kts 296°
2026-05-03 23:54 19.10800 -69.94304 29666 ft 472 kts 296°
2026-05-03 23:54 19.12226 -69.97439 29902 ft 474 kts 296°
2026-05-03 23:54 19.13656 -70.00578 30135 ft 475 kts 296°
2026-05-03 23:55 19.15090 -70.03726 30416 ft 474 kts 296°
2026-05-03 23:55 19.16519 -70.06861 30744 ft 473 kts 295°
2026-05-03 23:55 19.17944 -70.09994 31044 ft 472 kts 295°
2026-05-03 23:55 19.19365 -70.13125 31336 ft 471 kts 295°
2026-05-03 23:56 19.20781 -70.16244 31626 ft 470 kts 295°
2026-05-03 23:56 19.22197 -70.19361 31932 ft 469 kts 295°
2026-05-03 23:56 19.23607 -70.22467 32278 ft 467 kts 295°
2026-05-03 23:56 19.25006 -70.25553 32630 ft 464 kts 295°
2026-05-03 23:57 19.26397 -70.28631 32967 ft 462 kts 295°
2026-05-03 23:57 19.27762 -70.31649 33294 ft 460 kts 295°
2026-05-03 23:57 19.29160 -70.34735 33617 ft 458 kts 295°
2026-05-03 23:57 19.30516 -70.37728 33896 ft 456 kts 295°
2026-05-03 23:58 19.33245 -70.43773 34007 ft 452 kts 295°
2026-05-03 23:58 19.35941 -70.49763 34009 ft 450 kts 295°
2026-05-03 23:59 19.38640 -70.55734 34008 ft 449 kts 295°
2026-05-03 23:59 19.42172 -70.61171 34003 ft 451 kts 315°
2026-05-04 00:00 19.47069 -70.65302 33997 ft 451 kts 323°
2026-05-04 00:00 19.52154 -70.69236 34010 ft 454 kts 322°
2026-05-04 00:01 19.57250 -70.73194 34005 ft 453 kts 322°
2026-05-04 00:01 19.62325 -70.77140 34006 ft 453 kts 322°
2026-05-04 00:02 19.67416 -70.81102 34006 ft 453 kts 322°
2026-05-04 00:02 19.72457 -70.85035 34009 ft 453 kts 322°
2026-05-04 00:03 19.77572 -70.89027 34004 ft 453 kts 322°
2026-05-04 00:03 19.82644 -70.92977 33999 ft 452 kts 322°
2026-05-04 00:04 19.87675 -70.96900 33997 ft 452 kts 322°
2026-05-04 00:04 19.92737 -71.00866 33995 ft 452 kts 322°
2026-05-04 00:05 19.97802 -71.04835 34003 ft 452 kts 322°
2026-05-04 00:05 20.02866 -71.08792 34022 ft 451 kts 322°
2026-05-04 00:06 20.07912 -71.12734 34020 ft 449 kts 322°
2026-05-04 00:06 20.12942 -71.16681 34022 ft 449 kts 322°
2026-05-04 00:07 20.17967 -71.20633 34035 ft 449 kts 322°
2026-05-04 00:07 20.22815 -71.24441 34025 ft 449 kts 322°
2026-05-04 00:08 20.27841 -71.28385 34032 ft 449 kts 322°
2026-05-04 00:08 20.32863 -71.32327 34025 ft 448 kts 322°
2026-05-04 00:09 20.37882 -71.36280 34033 ft 449 kts 322°
2026-05-04 00:09 20.42624 -71.40560 34023 ft 446 kts 310°
2026-05-04 00:10 20.46464 -71.45690 34032 ft 446 kts 307°
2026-05-04 00:10 20.50317 -71.50876 34023 ft 446 kts 307°
2026-05-04 00:11 20.54177 -71.56052 34027 ft 446 kts 308°
2026-05-04 00:11 20.58035 -71.61229 34024 ft 446 kts 307°
2026-05-04 00:12 20.61885 -71.66414 34029 ft 445 kts 307°
2026-05-04 00:12 20.65735 -71.71604 34035 ft 445 kts 308°
2026-05-04 00:13 20.69580 -71.76780 34030 ft 445 kts 307°
2026-05-04 00:13 20.73405 -71.81940 34033 ft 445 kts 307°
2026-05-04 00:14 20.77252 -71.87130 34029 ft 445 kts 307°
2026-05-04 00:14 20.81091 -71.92318 34026 ft 445 kts 307°
2026-05-04 00:15 20.84935 -71.97519 34035 ft 446 kts 307°
2026-05-04 00:15 20.88782 -72.02724 34031 ft 445 kts 307°
2026-05-04 00:16 20.92619 -72.07928 34035 ft 445 kts 307°
2026-05-04 00:16 20.96454 -72.13130 34047 ft 445 kts 307°
2026-05-04 00:17 21.00286 -72.18331 34036 ft 445 kts 307°
2026-05-04 00:17 21.04113 -72.23546 34046 ft 445 kts 307°
2026-05-04 00:18 21.07940 -72.28753 34045 ft 445 kts 307°
2026-05-04 00:18 21.11770 -72.33960 34035 ft 445 kts 306°
2026-05-04 00:19 21.15564 -72.39129 34044 ft 444 kts 306°
2026-05-04 00:19 21.19382 -72.44337 34036 ft 444 kts 306°
2026-05-04 00:20 21.22578 -72.48702 34036 ft 444 kts 306°
2026-05-04 00:20 21.26390 -72.53912 34038 ft 444 kts 306°
2026-05-04 00:21 21.30818 -72.59969 34043 ft 444 kts 306°
2026-05-04 00:21 21.34006 -72.64343 34034 ft 444 kts 306°
2026-05-04 00:22 21.37784 -72.69524 34033 ft 444 kts 306°
2026-05-04 00:22 21.41593 -72.74739 34032 ft 444 kts 306°
2026-05-04 00:23 21.45404 -72.79961 34030 ft 444 kts 306°
2026-05-04 00:23 21.49200 -72.85176 34034 ft 443 kts 306°
2026-05-04 00:24 21.52995 -72.90401 34046 ft 443 kts 306°
2026-05-04 00:24 21.56778 -72.95615 34041 ft 442 kts 306°
2026-05-04 00:25 21.60564 -73.00824 34026 ft 442 kts 306°
2026-05-04 00:25 21.64342 -73.06042 34028 ft 442 kts 306°
2026-05-04 00:26 21.68114 -73.11257 34035 ft 442 kts 306°
2026-05-04 00:26 21.71895 -73.16474 34040 ft 442 kts 306°
2026-05-04 00:27 21.75672 -73.21689 34030 ft 441 kts 306°
2026-05-04 00:27 21.79442 -73.26904 34045 ft 441 kts 305°
2026-05-04 00:28 21.83205 -73.32124 34048 ft 441 kts 305°
2026-05-04 00:28 21.86943 -73.37312 34048 ft 441 kts 305°
2026-05-04 00:29 21.90694 -73.42533 34052 ft 441 kts 305°
2026-05-04 00:29 21.94449 -73.47750 34054 ft 441 kts 305°
2026-05-04 00:30 21.98199 -73.52966 34058 ft 440 kts 305°
2026-05-04 00:30 22.01949 -73.58185 34056 ft 440 kts 304°
2026-05-04 00:31 22.05678 -73.63398 34057 ft 439 kts 304°
2026-05-04 00:31 22.09415 -73.68603 34055 ft 439 kts 305°
2026-05-04 00:32 22.13153 -73.73816 34057 ft 439 kts 304°
2026-05-04 00:32 22.16879 -73.79026 34055 ft 438 kts 304°
2026-05-04 00:33 22.22458 -73.86843 34052 ft 438 kts 304°
2026-05-04 00:34 22.26179 -73.92058 34055 ft 439 kts 304°
2026-05-04 00:34 22.29904 -73.97282 34059 ft 439 kts 304°
2026-05-04 00:35 22.33619 -74.02507 34058 ft 438 kts 304°
2026-05-04 00:35 22.37337 -74.07730 34057 ft 438 kts 304°
2026-05-04 00:36 22.41027 -74.12915 34054 ft 438 kts 304°
2026-05-04 00:36 22.44735 -74.18135 34057 ft 438 kts 304°
2026-05-04 00:37 22.48441 -74.23363 34055 ft 437 kts 304°
2026-05-04 00:37 22.52144 -74.28583 34056 ft 437 kts 304°
2026-05-04 00:38 22.55841 -74.33794 34054 ft 436 kts 304°
2026-05-04 00:38 22.59529 -74.39014 34054 ft 436 kts 304°
2026-05-04 00:39 22.63210 -74.44230 34056 ft 436 kts 304°
2026-05-04 00:39 22.66882 -74.49443 34054 ft 435 kts 303°
2026-05-04 00:40 22.70553 -74.54649 34052 ft 435 kts 303°
2026-05-04 00:40 22.74085 -74.59660 34052 ft 434 kts 303°
2026-05-04 00:41 22.77745 -74.64860 34053 ft 434 kts 303°
2026-05-04 00:41 22.81382 -74.70016 34053 ft 433 kts 303°
2026-05-04 00:42 22.85028 -74.75217 34051 ft 432 kts 303°
2026-05-04 00:42 22.88665 -74.80409 34049 ft 432 kts 303°
2026-05-04 00:43 22.92295 -74.85599 34049 ft 432 kts 303°
2026-05-04 00:43 22.95931 -74.90792 34051 ft 432 kts 303°
2026-05-04 00:44 22.99568 -74.95976 34049 ft 432 kts 303°
2026-05-04 00:44 23.03197 -75.01162 34050 ft 431 kts 303°
2026-05-04 00:45 23.06813 -75.06351 34050 ft 431 kts 303°
2026-05-04 00:45 23.10612 -75.11397 34051 ft 434 kts 308°
2026-05-04 00:46 23.14694 -75.16240 34056 ft 435 kts 308°
2026-05-04 00:46 23.18778 -75.21085 34056 ft 434 kts 308°
2026-05-04 00:47 23.22828 -75.25895 34057 ft 434 kts 308°
2026-05-04 00:47 23.26921 -75.30767 34059 ft 433 kts 307°
2026-05-04 00:48 23.30954 -75.35579 34062 ft 433 kts 307°
2026-05-04 00:48 23.35031 -75.40445 34064 ft 432 kts 307°
2026-05-04 00:49 23.39053 -75.45252 34067 ft 432 kts 307°
2026-05-04 00:49 23.43104 -75.50092 34068 ft 432 kts 307°
2026-05-04 00:50 23.47142 -75.54926 34070 ft 431 kts 307°
2026-05-04 00:50 23.51179 -75.59748 34067 ft 430 kts 307°
2026-05-04 00:51 23.55201 -75.64576 34065 ft 430 kts 307°
2026-05-04 00:51 23.59215 -75.69403 34065 ft 429 kts 307°
2026-05-04 00:52 23.63232 -75.74219 34066 ft 429 kts 307°
2026-05-04 00:52 23.67242 -75.79035 34065 ft 429 kts 307°
2026-05-04 00:53 23.71245 -75.83860 34064 ft 428 kts 307°
2026-05-04 00:53 23.75244 -75.88682 34065 ft 428 kts 307°
2026-05-04 00:54 23.79238 -75.93493 34062 ft 427 kts 307°
2026-05-04 00:54 23.83137 -75.98193 34061 ft 427 kts 306°
2026-05-04 00:55 23.87025 -76.02894 34063 ft 426 kts 306°
2026-05-04 00:55 23.91004 -76.07706 34067 ft 427 kts 306°
2026-05-04 00:56 23.94978 -76.12516 34068 ft 426 kts 306°
2026-05-04 00:56 23.98944 -76.17326 34068 ft 426 kts 306°
2026-05-04 00:57 24.02914 -76.22147 34071 ft 427 kts 306°
2026-05-04 00:57 24.06886 -76.26962 34074 ft 426 kts 306°
2026-05-04 00:58 24.10851 -76.31785 34073 ft 426 kts 306°
2026-05-04 00:58 24.14813 -76.36614 34069 ft 426 kts 306°
2026-05-04 00:59 24.18776 -76.41434 34070 ft 426 kts 306°
2026-05-04 00:59 24.22735 -76.46258 34069 ft 426 kts 306°
2026-05-04 01:00 24.26688 -76.51084 34064 ft 426 kts 306°
2026-05-04 01:00 24.30647 -76.55924 34062 ft 427 kts 306°
2026-05-04 01:01 24.34607 -76.60769 34065 ft 427 kts 306°
2026-05-04 01:01 24.38570 -76.65624 34068 ft 427 kts 306°
2026-05-04 01:02 24.42529 -76.70477 34067 ft 426 kts 306°
2026-05-04 01:02 24.46484 -76.75321 34069 ft 426 kts 306°
2026-05-04 01:03 24.50414 -76.80145 34070 ft 427 kts 306°
2026-05-04 01:03 24.54371 -76.85009 34075 ft 427 kts 306°
2026-05-04 01:04 24.58329 -76.89868 34073 ft 427 kts 306°
2026-05-04 01:04 24.62274 -76.94728 34071 ft 426 kts 306°
2026-05-04 01:05 24.66217 -76.99600 34070 ft 426 kts 306°
2026-05-04 01:05 24.69493 -77.03646 34067 ft 427 kts 306°
2026-05-04 01:06 24.73295 -77.08338 34064 ft 426 kts 306°
2026-05-04 01:06 24.77237 -77.13217 34064 ft 426 kts 306°
2026-05-04 01:07 24.81175 -77.18089 34064 ft 426 kts 306°
2026-05-04 01:07 24.84996 -77.22816 34067 ft 426 kts 306°
2026-05-04 01:08 24.88916 -77.27679 34067 ft 426 kts 306°
2026-05-04 01:08 24.92848 -77.32559 34066 ft 426 kts 306°
2026-05-04 01:09 24.96786 -77.37451 34068 ft 426 kts 306°
2026-05-04 01:09 25.00711 -77.42345 34068 ft 426 kts 304°
2026-05-04 01:10 25.03748 -77.47791 34066 ft 412 kts 288°
2026-05-04 01:10 25.05929 -77.53642 34066 ft 413 kts 288°
2026-05-04 01:11 25.08118 -77.59494 34067 ft 413 kts 288°
2026-05-04 01:11 25.10309 -77.65350 34063 ft 412 kts 288°
2026-05-04 01:12 25.12493 -77.71198 34061 ft 413 kts 288°
2026-05-04 01:12 25.14678 -77.77059 34061 ft 413 kts 288°
2026-05-04 01:13 25.16846 -77.82883 34064 ft 413 kts 288°
2026-05-04 01:13 25.19028 -77.88751 34066 ft 413 kts 288°
2026-05-04 01:14 25.21204 -77.94609 34066 ft 412 kts 288°
2026-05-04 01:14 25.23375 -78.00465 34063 ft 412 kts 287°
2026-05-04 01:14 25.24454 -78.03378 33832 ft 406 kts 287°
2026-05-04 01:15 25.25517 -78.06239 33579 ft 400 kts 287°
2026-05-04 01:15 25.26564 -78.09064 33337 ft 396 kts 287°
2026-05-04 01:15 25.27595 -78.11857 32952 ft 391 kts 287°
2026-05-04 01:15 25.28617 -78.14631 32515 ft 387 kts 287°
2026-05-04 01:16 25.29629 -78.17375 32049 ft 384 kts 286°
2026-05-04 01:16 25.30644 -78.20097 31554 ft 383 kts 287°
2026-05-04 01:16 25.31698 -78.22791 31080 ft 381 kts 287°
2026-05-04 01:16 25.32775 -78.25458 30596 ft 380 kts 288°
2026-05-04 01:17 25.33862 -78.28114 30122 ft 377 kts 287°
2026-05-04 01:17 25.34939 -78.30751 29653 ft 375 kts 287°
2026-05-04 01:17 25.36003 -78.33373 29193 ft 373 kts 288°
2026-05-04 01:17 25.37055 -78.35981 28746 ft 370 kts 287°
2026-05-04 01:18 25.38097 -78.38577 28300 ft 368 kts 288°
2026-05-04 01:18 25.39128 -78.41158 27872 ft 366 kts 288°
2026-05-04 01:18 25.40148 -78.43726 27439 ft 364 kts 287°
2026-05-04 01:18 25.41162 -78.46280 27024 ft 361 kts 288°
2026-05-04 01:19 25.42145 -78.48789 26623 ft 359 kts 287°
2026-05-04 01:19 25.43117 -78.51323 26207 ft 357 kts 287°
2026-05-04 01:19 25.44077 -78.53846 25790 ft 355 kts 287°
2026-05-04 01:19 25.45033 -78.56353 25358 ft 352 kts 287°
2026-05-04 01:20 25.45985 -78.58845 24948 ft 350 kts 288°
2026-05-04 01:20 25.46929 -78.61314 24524 ft 348 kts 288°
2026-05-04 01:20 25.47871 -78.63772 24100 ft 346 kts 288°
2026-05-04 01:20 25.48806 -78.66214 23662 ft 343 kts 288°
2026-05-04 01:21 25.49732 -78.68635 23234 ft 340 kts 288°
2026-05-04 01:21 25.50650 -78.71039 22799 ft 338 kts 288°
2026-05-04 01:21 25.51565 -78.73431 22364 ft 336 kts 288°
2026-05-04 01:21 25.52476 -78.75810 21922 ft 335 kts 288°
2026-05-04 01:22 25.53383 -78.78180 21479 ft 333 kts 288°
2026-05-04 01:22 25.54282 -78.80531 21042 ft 331 kts 288°
2026-05-04 01:22 25.55174 -78.82872 20611 ft 329 kts 288°
2026-05-04 01:22 25.56060 -78.85201 20176 ft 327 kts 288°
2026-05-04 01:23 25.56943 -78.87515 19735 ft 325 kts 289°
2026-05-04 01:23 25.57821 -78.89812 19308 ft 323 kts 289°
2026-05-04 01:23 25.58689 -78.92088 18885 ft 321 kts 289°
2026-05-04 01:23 25.59555 -78.94365 18458 ft 319 kts 289°
2026-05-04 01:24 25.60413 -78.96624 18032 ft 317 kts 289°
2026-05-04 01:24 25.61267 -78.98872 17610 ft 315 kts 289°
2026-05-04 01:24 25.62111 -79.01099 17173 ft 314 kts 289°
2026-05-04 01:24 25.62957 -79.03333 16735 ft 313 kts 289°
2026-05-04 01:25 25.63799 -79.05556 16317 ft 311 kts 289°
2026-05-04 01:25 25.64632 -79.07766 15891 ft 310 kts 289°
2026-05-04 01:25 25.65456 -79.09963 15491 ft 308 kts 289°
2026-05-04 01:25 25.66275 -79.12153 15086 ft 306 kts 289°
2026-05-04 01:26 25.67089 -79.14326 14683 ft 305 kts 289°
2026-05-04 01:26 25.67898 -79.16485 14286 ft 303 kts 289°
2026-05-04 01:26 25.68706 -79.18634 13892 ft 301 kts 289°
2026-05-04 01:26 25.69508 -79.20770 13501 ft 299 kts 289°
2026-05-04 01:27 25.70305 -79.22896 13112 ft 298 kts 289°
2026-05-04 01:27 25.71099 -79.25011 12726 ft 296 kts 289°
2026-05-04 01:27 25.71885 -79.27109 12344 ft 294 kts 290°
2026-05-04 01:27 25.72669 -79.29203 11960 ft 293 kts 290°
2026-05-04 01:28 25.73441 -79.31281 11583 ft 291 kts 289°
2026-05-04 01:28 25.74199 -79.33349 11210 ft 289 kts 289°
2026-05-04 01:28 25.74953 -79.35413 10830 ft 288 kts 289°
2026-05-04 01:28 25.75701 -79.37463 10465 ft 286 kts 290°
2026-05-04 01:29 25.76444 -79.39498 10225 ft 281 kts 290°
2026-05-04 01:29 25.77182 -79.41517 10135 ft 284 kts 290°
2026-05-04 01:29 25.77926 -79.43547 10019 ft 284 kts 290°
2026-05-04 01:29 25.78664 -79.45562 9674 ft 287 kts 290°
2026-05-04 01:30 25.79415 -79.47613 9251 ft 287 kts 290°
2026-05-04 01:30 25.80165 -79.49664 8861 ft 286 kts 290°
2026-05-04 01:30 25.80912 -79.51707 8470 ft 286 kts 290°
2026-05-04 01:30 25.81656 -79.53746 8111 ft 284 kts 291°
2026-05-04 01:31 25.82394 -79.55771 7711 ft 283 kts 291°
2026-05-04 01:31 25.83132 -79.57791 7384 ft 280 kts 291°
2026-05-04 01:31 25.83866 -79.59796 6997 ft 280 kts 291°
2026-05-04 01:31 25.84605 -79.61790 6591 ft 280 kts 291°
2026-05-04 01:32 25.85350 -79.63768 6253 ft 277 kts 291°
2026-05-04 01:32 25.86120 -79.65730 5999 ft 273 kts 294°
2026-05-04 01:32 25.86925 -79.67627 6007 ft 273 kts 295°
2026-05-04 01:32 25.87754 -79.69527 6009 ft 272 kts 295°
2026-05-04 01:33 25.88584 -79.71418 6011 ft 272 kts 295°
2026-05-04 01:33 25.89412 -79.73312 6011 ft 273 kts 295°
2026-05-04 01:33 25.90233 -79.75207 6011 ft 273 kts 294°
2026-05-04 01:33 25.91051 -79.77110 6011 ft 273 kts 294°
2026-05-04 01:34 25.91864 -79.79010 6011 ft 273 kts 294°
2026-05-04 01:34 25.92678 -79.80915 6008 ft 273 kts 294°
2026-05-04 01:34 25.93490 -79.82817 6009 ft 273 kts 294°
2026-05-04 01:34 25.94302 -79.84722 6004 ft 272 kts 294°
2026-05-04 01:35 25.95113 -79.86623 6007 ft 273 kts 294°
2026-05-04 01:35 25.95914 -79.88504 6005 ft 273 kts 294°
2026-05-04 01:35 25.96722 -79.90411 6008 ft 272 kts 294°
2026-05-04 01:35 25.97531 -79.92320 6012 ft 273 kts 294°
2026-05-04 01:36 25.98341 -79.94229 6011 ft 273 kts 295°
2026-05-04 01:36 25.99374 -79.95997 6008 ft 274 kts 310°
2026-05-04 01:36 26.00651 -79.97567 6008 ft 274 kts 311°
2026-05-04 01:36 26.01931 -79.99142 6009 ft 275 kts 310°
2026-05-04 01:37 26.03213 -80.00721 6009 ft 275 kts 310°
2026-05-04 01:37 26.04489 -80.02299 6007 ft 275 kts 310°
2026-05-04 01:37 26.05764 -80.03876 6006 ft 275 kts 310°
2026-05-04 01:37 26.07041 -80.05453 6011 ft 274 kts 310°
2026-05-04 01:38 26.08320 -80.07033 6008 ft 275 kts 310°
2026-05-04 01:38 26.09599 -80.08616 6008 ft 274 kts 310°
2026-05-04 01:38 26.10842 -80.10153 6003 ft 261 kts 310°
2026-05-04 01:38 26.12020 -80.11607 6005 ft 246 kts 310°
2026-05-04 01:39 26.13152 -80.13009 6011 ft 243 kts 310°
2026-05-04 01:39 26.14178 -80.14513 6012 ft 240 kts 297°
2026-05-04 01:39 26.14811 -80.16224 6009 ft 239 kts 283°
2026-05-04 01:39 26.15032 -80.18047 6011 ft 238 kts 269°
2026-05-04 01:40 26.15032 -80.19895 5808 ft 238 kts 269°
2026-05-04 01:40 26.15039 -80.21697 5657 ft 228 kts 270°
2026-05-04 01:40 26.15048 -80.23447 5584 ft 226 kts 270°
2026-05-04 01:40 26.15056 -80.25201 5496 ft 227 kts 270°
2026-05-04 01:41 26.15075 -80.26953 5387 ft 226 kts 270°
2026-05-04 01:41 26.15098 -80.28709 5291 ft 227 kts 270°
2026-05-04 01:41 26.15108 -80.30459 5202 ft 227 kts 270°
2026-05-04 01:41 26.15102 -80.32213 5104 ft 227 kts 269°
2026-05-04 01:42 26.15084 -80.33966 5006 ft 227 kts 269°
2026-05-04 01:42 26.15056 -80.35720 5008 ft 227 kts 268°
2026-05-04 01:42 26.15024 -80.37483 4830 ft 227 kts 268°
2026-05-04 01:42 26.14991 -80.39229 4600 ft 225 kts 268°
2026-05-04 01:43 26.14956 -80.40973 4373 ft 225 kts 268°
2026-05-04 01:43 26.14921 -80.42711 4149 ft 226 kts 269°
2026-05-04 01:43 26.14884 -80.44468 4025 ft 226 kts 269°
2026-05-04 01:43 26.14848 -80.46211 4016 ft 226 kts 269°
2026-05-04 01:44 26.14610 -80.47935 4017 ft 226 kts 245°
2026-05-04 01:44 26.13621 -80.49258 4019 ft 226 kts 211°
2026-05-04 01:44 26.12142 -80.49819 4021 ft 227 kts 188°
2026-05-04 01:44 26.10561 -80.49880 4017 ft 229 kts 170°
2026-05-04 01:45 26.09086 -80.49156 4020 ft 238 kts 140°
2026-05-04 01:45 26.08088 -80.47698 4002 ft 240 kts 111°
2026-05-04 01:45 26.07808 -80.44007 4014 ft 242 kts 89°
2026-05-04 01:46 26.07810 -80.42141 4017 ft 242 kts 90°
2026-05-04 01:46 26.07805 -80.40320 4020 ft 229 kts 90°
2026-05-04 01:46 26.07798 -80.38566 3837 ft 221 kts 90°
2026-05-04 01:46 26.07791 -80.36910 3574 ft 207 kts 90°
2026-05-04 01:47 26.07784 -80.35395 3301 ft 191 kts 90°
2026-05-04 01:47 26.07778 -80.33974 3062 ft 177 kts 90°
2026-05-04 01:47 26.07773 -80.32634 2835 ft 171 kts 90°
2026-05-04 01:47 26.07767 -80.31323 2613 ft 168 kts 89°
2026-05-04 01:48 26.07761 -80.30033 2395 ft 166 kts 90°
2026-05-04 01:48 26.07755 -80.28753 2171 ft 165 kts 90°
2026-05-04 01:48 26.07751 -80.27893 2024 ft 165 kts 89°
2026-05-04 01:48 26.07745 -80.26642 1823 ft 157 kts 89°
2026-05-04 01:49 26.07739 -80.25446 1612 ft 153 kts 89°
2026-05-04 01:49 26.07734 -80.24266 1406 ft 152 kts 89°
2026-05-04 01:49 26.07728 -80.23095 1202 ft 151 kts 89°
2026-05-04 01:49 26.07720 -80.21927 992 ft 150 kts 89°
2026-05-04 01:50 26.07719 -80.20785 787 ft 150 kts 89°
2026-05-04 01:50 26.07713 -80.19629 583 ft 149 kts 90°
2026-05-04 01:50 26.07706 -80.18483 380 ft 148 kts 89°
2026-05-04 01:50 26.07701 -80.17336 207 ft 148 kts 89°
2026-05-04 01:51 26.07693 -80.16193 27 ft 145 kts 90°
2026-05-04 01:51 26.07687 -80.15229 16 ft 102 kts 90°
2026-05-04 01:51 26.07683 -80.14646 19 ft 51 kts 92°
2026-05-04 01:51 26.07644 -80.14439 21 ft 15 kts 117°
2026-05-04 01:52 26.07586 -80.14394 18 ft 12 kts 178°
2026-05-04 01:52 26.07556 -80.14469 17 ft 12 kts 272°
2026-05-04 01:52 26.07560 -80.14570 17 ft 14 kts 271°
2026-05-04 01:52 26.07560 -80.14681 17 ft 15 kts 270°
2026-05-04 01:53 26.07561 -80.14803 17 ft 16 kts 270°
2026-05-04 01:53 26.07562 -80.14935 16 ft 18 kts 271°
2026-05-04 01:53 26.07563 -80.15071 16 ft 16 kts 266°
2026-05-04 01:53 26.07487 -80.15126 17 ft 15 kts 183°
2026-05-04 01:54 26.07382 -80.15126 17 ft 16 kts 180°
2026-05-04 01:54 26.07266 -80.15127 17 ft 17 kts 180°
2026-05-04 01:54 26.07142 -80.15128 16 ft 18 kts 181°
2026-05-04 01:54 26.07053 -80.15129 16 ft 5 kts 181°
2026-05-04 01:55 26.07007 -80.15130 16 ft 8 kts 180°
2026-05-04 01:55 26.06938 -80.15130 16 ft 11 kts 180°
2026-05-04 01:55 26.06857 -80.15130 16 ft 12 kts 180°
2026-05-04 01:55 26.06781 -80.15108 18 ft 12 kts 129°
2026-05-04 01:56 26.06768 -80.15017 16 ft 13 kts 89°
2026-05-04 01:56 26.06767 -80.14910 15 ft 15 kts 90°
2026-05-04 01:56 26.06766 -80.14792 15 ft 16 kts 90°
2026-05-04 01:56 26.06766 -80.14665 15 ft 16 kts 90°
2026-05-04 01:57 26.06788 -80.14592 15 ft 8 kts 26°
2026-05-04 01:57 26.06841 -80.14574 17 ft 8 kts 21°
2026-05-04 01:57 26.06870 -80.14560 16 ft 2 kts 24°
2026-05-04 01:57 26.06874 -80.14558 16 ft 0 kts 24°
2026-05-04 01:58 26.06876 -80.14557 16 ft 1 kts 24°